Temp
-6 -5 -5 -5 -5 -5 -5 -5 -5 -5 -5 -5 -5 -5 -5 -5 -5 -5 -5 -5 -5 -5 -5 -5 -5 -5 -5 -5 -5 -5 -5 -5 -6 -6 -6 -6 -6 -6 -6 -6 -6 -6
-6 -5 -5 -5 -5 -5 -5 -5 -5 -5 -5 -5 -5 -5 -5 -5 -5 -5 -5 -5 -5 -5 -5 -5 -5 -5 -5 -5 -5 -5 -5 -5 -5 -6 -6 -6 -6 -6 -6 -6 -6 -6
-5 -5 -5 -5 -5 -5 -5 -5 -5 -5 -5 -5 -5 -5 -5 -5 -5 -5 -5 -5 -5 -5 -5 -5 -5 -5 -5 -5 -5 -5 -5 -5 -5 -5 -6 -6 -6 -6 -6 -6 -6 -6
-5 -5 -5 -5 -5 -5 -5 -5 -6 -6 -5 -5 -5 -5 -5 -5 -5 -5 -5 -5 -5 -5 -5 -5 -5 -5 -5 -5 -5 -5 -5 -5 -5 -5 -6 -6 -6 -6 -6 -6 -6 -6
-5 -5 -5 -5 -5 -5 -5 -5 -5 -6 -6 -5 -5 -5 -5 -5 -5 -5 -5 -5 -5 -5 -5 -5 -5 -5 -5 -5 -5 -5 -5 -5 -5 -5 -5 -6 -6 -6 -6 -6 -6 -6
-5 -5 -4 -5 -5 -5 -5 -5 -5 -5 -6 -5 -5 -5 -5 -5 -5 -5 -5 -5 -5 -5 -5 -5 -5 -5 -5 -5 -5 -5 -5 -5 -5 -5 -5 -5 -5 -5 -5 -5 -6 -6
-5 -5 -4 -4 -5 -5 -5 -5 -5 -5 -5 -5 -5 -5 -5 -5 -5 -5 -5 -5 -5 -5 -5 -5 -5 -5 -5 -5 -5 -5 -5 -5 -5 -5 -5 -5 -5 -5 -5 -5 -5 -5
-5 -5 -5 -4 -5 -5 -5 -5 -5 -5 -5 -5 -5 -5 -5 -5 -5 -5 -5 -5 -5 -5 -5 -5 -5 -5 -5 -5 -5 -5 -5 -5 -5 -5 -5 -5 -5 -5 -5 -5 -5 -5
-5 -5 -5 -5 -5 -5 -5 -5 -5 -5 -5 -5 -5 -5 -5 -5 -5 -5 -5 -5 -5 -5 -5 -5 -5 -5 -5 -5 -5 -5 -5 -5 -5 -5 -5 -5 -5 -5 -5 -5 -5 -5
-5 -5 -5 -5 -5 -5 -5 -5 -5 -5 -5 -5 -5 -5 -5 -5 -4 -5 -5 -5 -5 -5 -5 -5 -5 -5 -5 -5 -5 -5 -5 -5 -5 -5 -5 -5 -5 -5 -5 -5 -5 -5
-5 -5 -5 -5 -5 -5 -5 -5 -5 -5 -5 -5 -5 -5 -5 -4 -4 -4 -5 -5 -5 -4 -4 -4 -4 -4 -4 -4 -5 -5 -5 -5 -5 -5 -5 -5 -5 -5 -5 -5 -5 -5
-5 -5 -5 -5 -5 -5 -5 -5 -5 -4 -4 -5 -5 -5 -5 -4 -4 -4 -4 -4 -4 -4 -4 -4 -4 -4 -4 -4 -4 -5 -5 -5 -5 -5 -5 -5 -5 -5 -5 -5 -5 -5
-5 -5 -5 -5 -5 -5 -5 -5 -5 -4 -4 -4 -4 -4 -4 -4 -4 -4 -4 -4 -4 -4 -4 -4 -4 -4 -4 -4 -4 -4 -5 -5 -5 -5 -5 -5 -5 -5 -6 -6 -6 -6
-5 -5 -5 -5 -5 -5 -5 -5 -5 -5 -5 -4 -4 -4 -4 -4 -4 -4 -4 -4 -4 -4 -4 -4 -4 -4 -4 -4 -4 -4 -4 -4 -4 -5 -5 -5 -5 -5 -6 -6 -6 -6
-6 -6 -5 -5 -5 -5 -5 -5 -5 -5 -5 -5 -4 -4 -4 -4 -4 -4 -4 -4 -4 -4 -4 -4 -4 -4 -4 -4 -4 -4 -4 -4 -4 -4 -4 -5 -5 -5 -5 -5 -6 -6
-6 -5 -5 -5 -5 -5 -5 -5 -5 -5 -5 -5 -5 -5 -4 -4 -4 -4 -4 -4 -4 -4 -4 -4 -4 -4 -4 -4 -4 -3 -3 -3 -3 -4 -4 -4 -4 -5 -5 -5 -5 -5
-6 -5 -5 -5 -5 -5 -5 -5 -5 -5 -5 -5 -5 -5 -5 -5 -5 -4 -4 -4 -4 -4 -4 -4 -4 -4 -4 -4 -4 -3 -3 -3 -3 -3 -4 -4 -4 -4 -4 -5 -5 -5
-6 -6 -6 -6 -6 -5 -5 -5 -5 -5 -5 -5 -5 -5 -5 -5 -5 -5 -5 -5 -5 -4 -4 -4 -4 -4 -4 -4 -4 -3 -3 -3 -3 -3 -4 -4 -4 -4 -4 -4 -5 -5
-6 -7 -7 -7 -6 -6 -6 -5 -5 -5 -5 -5 -5 -5 -5 -5 -5 -5 -5 -5 -5 -5 -5 -5 -5 -5 -4 -5 -4 -4 -4 -3 -3 -4 -4 -4 -4 -4 -4 -4 -4 -5
-7 -7 -7 -7 -7 -6 -6 -5 -5 -5 -5 -6 -5 -5 -5 -5 -5 -5 -5 -5 -5 -5 -5 -5 -5 -5 -5 -5 -5 -5 -4 -4 -4 -4 -4 -4 -4 -4 -4 -4 -4 -4
-7 -7 -7 -7 -7 -7 -6 -6 -6 -6 -6 -6 -6 -5 -5 -5 -5 -5 -5 -5 -5 -5 -5 -5 -5 -5 -5 -5 -5 -5 -5 -4 -4 -4 -4 -5 -5 -5 -5 -5 -5 -5
-7 -7 -7 -7 -7 -7 -7 -7 -6 -6 -6 -6 -6 -6 -6 -6 -6 -6 -5 -5 -5 -5 -5 -5 -5 -5 -5 -5 -6 -6 -5 -5 -5 -4 -4 -5 -5 -5 -5 -5 -5 -5
-7 -7 -7 -7 -7 -7 -7 -7 -7 -6 -6 -6 -7 -7 -7 -7 -7 -6 -6 -6 -6 -5 -5 -5 -5 -5 -5 -5 -6 -6 -5 -5 -5 -5 -5 -5 -5 -5 -5 -5 -5 -5
-7 -7 -7 -7 -7 -7 -7 -7 -6 -6 -6 -6 -7 -7 -7 -7 -7 -7 -6 -6 -6 -6 -6 -5 -5 -5 -6 -6 -6 -6 -5 -5 -5 -5 -5 -5 -5 -5 -5 -5 -6 -5
-7 -7 -7 -7 -7 -7 -7 -7 -7 -7 -7 -7 -7 -7 -7 -7 -7 -7 -7 -6 -6 -6 -6 -6 -5 -5 -5 -5 -6 -6 -6 -5 -5 -5 -5 -5 -5 -6 -6 -5 -6 -6
-7 -7 -7 -7 -7 -7 -7 -7 -7 -7 -7 -7 -7 -7 -7 -7 -7 -7 -7 -6 -6 -6 -6 -6 -6 -6 -6 -5 -5 -6 -6 -5 -5 -5 -5 -5 -5 -6 -6 -5 -5 -6
Height
5942 5943 5945 5946 5947 5949 5950 5952 5953 5954 5955 5957 5958 5959 5959 5961 5962 5963 5963 5964 5964 5965 5966 5967 5967 5968 5969 5970 5970 5971 5972 5973 5973 5974 5974 5975 5975 5976 5976 5977 5977 5977
5941 5942 5944 5945 5947 5948 5950 5951 5953 5954 5955 5957 5957 5958 5959 5960 5962 5963 5964 5964 5965 5966 5966 5967 5968 5969 5970 5970 5971 5972 5972 5973 5974 5974 5975 5975 5976 5976 5976 5977 5977 5978
5940 5941 5943 5944 5946 5947 5949 5950 5952 5954 5955 5956 5957 5958 5959 5961 5962 5963 5964 5964 5965 5966 5967 5967 5968 5969 5970 5970 5971 5972 5973 5974 5974 5975 5975 5976 5976 5977 5977 5977 5978 5978
5938 5940 5942 5944 5945 5946 5948 5949 5951 5953 5955 5956 5957 5958 5960 5961 5962 5962 5963 5964 5965 5965 5966 5967 5968 5969 5969 5970 5971 5972 5973 5974 5974 5975 5975 5976 5976 5977 5977 5978 5978 5978
5937 5938 5940 5942 5944 5946 5947 5948 5950 5952 5954 5955 5957 5958 5959 5960 5961 5962 5963 5964 5964 5965 5966 5967 5968 5968 5969 5970 5970 5971 5972 5973 5974 5974 5975 5976 5976 5977 5978 5978 5978 5979
5937 5938 5939 5941 5943 5945 5946 5947 5949 5951 5953 5955 5956 5957 5958 5959 5960 5961 5962 5963 5964 5964 5965 5966 5967 5968 5968 5969 5970 5971 5971 5972 5973 5974 5975 5975 5976 5977 5977 5978 5978 5979
5937 5938 5939 5940 5942 5943 5945 5946 5948 5950 5951 5953 5955 5956 5958 5958 5959 5960 5961 5962 5963 5964 5965 5965 5966 5967 5968 5968 5969 5970 5970 5971 5972 5973 5974 5975 5975 5976 5977 5978 5978 5979
5937 5938 5939 5940 5941 5943 5944 5946 5947 5949 5950 5952 5953 5955 5956 5957 5958 5959 5960 5961 5962 5963 5964 5965 5965 5966 5967 5968 5968 5969 5970 5971 5972 5972 5973 5974 5975 5976 5976 5977 5978 5978
5935 5937 5939 5941 5942 5943 5944 5945 5947 5948 5949 5951 5952 5953 5955 5956 5957 5958 5959 5960 5961 5962 5963 5964 5964 5965 5966 5967 5967 5968 5969 5970 5971 5972 5972 5973 5974 5975 5976 5977 5977 5978
5934 5935 5937 5939 5941 5943 5944 5945 5946 5947 5949 5950 5950 5952 5953 5954 5956 5957 5958 5959 5960 5961 5962 5963 5964 5964 5965 5966 5966 5967 5968 5969 5970 5971 5972 5972 5973 5974 5975 5976 5977 5978
5932 5934 5935 5937 5939 5941 5943 5944 5945 5947 5948 5949 5950 5951 5952 5953 5954 5956 5957 5958 5959 5960 5961 5962 5963 5964 5964 5965 5966 5966 5967 5968 5969 5970 5971 5972 5972 5973 5974 5975 5977 5978
5930 5932 5933 5935 5936 5938 5940 5942 5944 5945 5947 5948 5949 5950 5951 5952 5953 5955 5956 5957 5958 5959 5960 5961 5962 5963 5964 5964 5965 5966 5966 5967 5968 5969 5970 5971 5972 5972 5973 5975 5976 5977
5927 5929 5930 5932 5934 5936 5937 5940 5942 5944 5945 5947 5948 5949 5950 5951 5952 5954 5955 5956 5957 5958 5959 5960 5961 5962 5963 5963 5964 5965 5965 5966 5967 5967 5968 5969 5970 5971 5972 5973 5974 5976
5924 5926 5927 5929 5931 5933 5935 5937 5939 5942 5943 5945 5946 5948 5949 5950 5951 5952 5953 5954 5955 5956 5957 5958 5959 5960 5961 5962 5963 5964 5964 5965 5966 5966 5967 5968 5969 5970 5971 5972 5973 5974
5920 5922 5924 5926 5928 5930 5932 5934 5936 5939 5941 5943 5944 5946 5947 5948 5949 5950 5952 5953 5954 5955 5956 5957 5958 5959 5960 5961 5962 5962 5963 5964 5964 5965 5966 5967 5968 5969 5970 5971 5972 5972
5915 5917 5919 5921 5923 5926 5928 5930 5933 5935 5938 5940 5942 5944 5945 5947 5948 5949 5950 5951 5952 5954 5955 5956 5957 5958 5959 5959 5960 5961 5961 5962 5963 5964 5965 5966 5967 5967 5968 5969 5970 5971
5913 5914 5915 5917 5919 5921 5923 5926 5928 5931 5933 5936 5939 5941 5942 5944 5946 5947 5948 5949 5950 5952 5953 5954 5955 5956 5957 5958 5958 5959 5959 5960 5961 5962 5963 5964 5965 5966 5967 5968 5968 5969
5912 5914 5915 5917 5919 5920 5921 5922 5924 5927 5929 5932 5935 5937 5939 5941 5943 5944 5946 5947 5948 5949 5951 5952 5953 5954 5955 5956 5956 5956 5957 5958 5959 5960 5961 5962 5963 5964 5965 5966 5967 5968
5911 5913 5916 5918 5920 5920 5920 5920 5922 5924 5926 5928 5930 5931 5933 5936 5938 5940 5942 5944 5945 5946 5948 5950 5951 5952 5953 5954 5954 5954 5954 5955 5956 5958 5959 5960 5961 5962 5964 5964 5966 5966
5909 5911 5913 5915 5915 5915 5915 5916 5918 5921 5923 5924 5925 5926 5928 5930 5933 5935 5937 5939 5941 5943 5945 5946 5948 5949 5951 5952 5952 5951 5951 5952 5953 5955 5957 5958 5959 5960 5961 5962 5963 5964
5905 5907 5908 5909 5909 5910 5912 5914 5915 5917 5919 5920 5922 5922 5923 5925 5928 5930 5933 5935 5937 5939 5941 5943 5944 5946 5947 5949 5949 5949 5949 5949 5950 5952 5954 5956 5957 5958 5959 5960 5961 5961
5899 5901 5903 5903 5904 5907 5911 5913 5914 5915 5916 5917 5919 5922 5923 5925 5926 5928 5930 5933 5934 5935 5937 5939 5941 5942 5943 5945 5946 5945 5945 5946 5947 5949 5951 5953 5954 5955 5956 5957 5958 5959
5895 5896 5897 5898 5900 5904 5906 5907 5909 5911 5913 5915 5919 5923 5925 5925 5925 5925 5927 5929 5931 5933 5934 5936 5938 5938 5939 5941 5941 5941 5942 5943 5944 5946 5947 5949 5951 5952 5953 5954 5955 5955
5891 5892 5893 5894 5896 5898 5899 5900 5902 5905 5907 5910 5915 5919 5920 5920 5920 5921 5922 5924 5927 5929 5931 5933 5934 5935 5936 5936 5937 5938 5938 5939 5940 5942 5943 5945 5947 5948 5949 5950 5951 5952
5887 5887 5889 5890 5891 5892 5893 5894 5897 5900 5902 5905 5909 5912 5914 5916 5917 5917 5918 5920 5922 5924 5926 5929 5930 5931 5932 5933 5933 5934 5934 5935 5936 5937 5939 5941 5943 5944 5945 5946 5947 5948
5883 5883 5884 5886 5887 5888 5888 5889 5893 5898 5900 5902 5904 5906 5909 5911 5913 5914 5915 5916 5917 5919 5921 5924 5926 5927 5928 5929 5930 5930 5931 5931 5932 5933 5935 5937 5938 5939 5940 5941 5942 5943
Wind_Speed
19 19 18 18 17 16 15 14 13 12 12 11 11 11 11 10 10 10 10 10 10 10 9 9 9 8 8 7 7 6 6 6 6 7 7 7 6 6 6 5 6 6
20 19 19 19 18 17 16 15 14 13 13 12 12 12 11 11 10 10 9 9 9 9 8 8 8 7 7 7 6 6 5 5 6 6 6 6 6 6 5 5 6 6
22 21 20 20 20 19 18 16 15 14 14 13 13 12 12 11 10 10 9 8 8 8 8 7 7 6 6 6 5 5 5 5 5 5 6 6 5 5 5 5 5 6
23 23 22 21 21 20 19 18 17 16 15 15 14 13 12 11 10 10 9 8 8 7 7 7 7 6 6 5 5 5 5 4 4 5 5 5 5 5 5 5 5 6
25 24 23 22 22 21 21 20 19 17 16 16 15 13 13 12 11 10 9 8 8 8 7 7 7 6 6 6 5 5 5 5 4 4 5 5 5 5 5 6 6 6
25 25 24 24 23 23 22 22 21 19 18 17 16 15 14 13 12 11 10 10 9 9 8 8 7 7 7 6 6 6 6 5 5 5 5 5 5 5 5 5 5 5
25 25 25 25 25 24 24 23 22 21 20 19 18 17 16 15 14 13 12 11 11 10 9 9 9 9 8 7 7 7 7 6 6 6 5 6 6 6 6 5 5 5
26 25 24 24 25 25 25 24 24 23 22 21 20 19 18 16 16 15 14 13 12 12 11 11 11 10 10 9 8 8 8 7 7 6 6 7 7 7 6 6 5 5
26 25 25 24 24 25 25 25 25 25 24 23 22 21 20 19 18 16 15 15 14 14 13 12 12 11 11 10 9 9 8 8 8 7 7 8 8 8 7 6 6 5
27 27 26 25 24 24 25 26 27 26 25 25 24 23 22 21 20 18 17 17 16 16 15 14 13 13 12 11 10 10 9 9 9 9 8 8 9 9 8 7 6 6
28 28 27 26 25 25 25 26 27 28 27 27 26 25 24 23 22 20 20 19 18 17 17 16 15 14 13 12 11 10 10 10 10 10 9 9 10 10 9 8 7 7
28 29 29 28 27 26 26 26 27 28 29 29 28 27 26 25 24 23 22 21 20 19 18 17 16 16 15 14 13 12 11 11 11 11 11 11 11 11 10 10 9 8
29 29 30 30 29 28 27 27 27 27 29 29 30 29 28 27 26 25 24 23 22 21 20 19 18 17 17 16 15 14 13 12 12 13 13 12 12 12 12 11 10 10
28 30 30 31 30 30 29 28 27 27 28 29 30 29 29 29 28 27 26 26 25 23 22 21 20 19 18 18 17 16 16 15 14 14 14 14 14 13 13 13 12 12
28 30 31 31 31 31 30 29 28 27 27 28 29 30 30 29 29 29 28 28 27 25 24 23 22 21 20 20 20 19 19 17 16 15 15 15 15 15 15 15 14 14
30 30 31 31 31 32 32 32 31 29 28 28 29 30 30 30 29 29 29 29 28 27 26 25 24 23 22 22 22 22 21 20 19 17 16 16 16 16 16 16 16 15
33 32 31 30 30 31 33 34 34 33 31 29 29 29 30 30 29 29 29 29 29 28 27 27 26 25 24 24 25 25 24 23 22 20 19 18 17 17 17 17 17 16
35 35 34 31 28 28 30 32 34 34 34 32 31 30 30 30 30 30 29 29 29 29 28 27 27 26 26 26 27 27 27 26 25 23 22 20 19 18 18 18 18 18
35 35 35 32 29 28 28 29 30 32 34 35 34 34 33 32 31 30 29 29 29 29 28 27 27 27 27 27 28 29 29 28 27 26 25 23 22 20 19 19 19 19
32 33 33 32 33 33 31 30 30 30 32 35 37 37 37 35 33 32 31 30 29 29 28 27 27 28 27 27 29 30 31 31 30 28 27 26 24 23 22 21 21 20
28 30 32 34 36 36 35 33 32 30 31 34 36 37 39 39 37 36 34 32 31 30 29 28 28 28 27 27 29 31 32 32 31 30 28 27 26 26 24 23 23 22
27 28 32 36 37 36 35 36 35 33 31 33 35 36 36 36 36 37 36 34 34 33 31 29 29 28 28 28 29 32 33 33 32 31 29 27 27 27 26 26 25 24
32 31 32 36 37 36 34 36 37 36 33 33 34 34 32 31 32 34 35 35 36 36 34 32 31 30 30 30 31 33 34 34 33 32 30 29 27 27 27 27 27 26
39 38 36 35 36 36 35 35 37 38 37 34 32 32 32 32 32 33 33 33 35 36 36 35 34 33 33 33 33 34 34 34 34 34 32 30 28 28 28 28 28 28
42 43 42 39 38 37 37 36 35 35 35 34 33 33 33 33 32 32 32 32 32 34 35 36 36 36 35 34 35 35 36 35 35 35 34 32 30 30 29 29 29 29
45 44 44 43 42 41 41 39 35 31 31 33 35 34 32 31 31 31 31 30 30 32 33 35 36 37 36 36 36 37 37 37 37 36 34 33 32 32 31 30 30 30
Wind_Direction
210 210 207 207 209 211 209 203 199 196 195 200 202 200 203 206 206 201 195 192 190 190 189 190 193 195 197 201 202 202 202 199 197 196 195 193 186 183 180 175 172 169
210 211 208 207 208 209 211 207 202 198 197 202 204 205 206 207 208 206 200 195 192 193 196 197 200 202 202 204 206 207 206 204 202 201 203 206 201 196 191 187 183 178
209 212 210 208 208 208 209 208 204 200 199 203 207 208 209 209 209 208 204 200 195 196 201 201 202 205 207 210 211 212 213 213 212 210 211 214 217 215 209 204 197 189
209 211 210 209 209 207 207 207 205 202 200 204 209 211 211 211 212 210 208 206 203 201 205 208 208 207 208 212 215 220 223 223 223 224 224 225 228 230 225 220 213 203
211 212 210 210 210 208 208 207 205 203 202 206 210 211 214 215 216 216 214 213 213 212 213 217 220 218 214 213 216 223 229 230 233 233 234 234 235 236 234 229 224 215
215 214 211 210 210 210 210 209 206 204 203 207 211 213 216 219 221 222 222 222 221 222 223 227 233 234 231 225 220 223 228 232 235 237 238 238 236 232 229 227 226 222
222 221 216 212 211 212 212 211 209 207 206 208 212 214 216 220 223 225 227 228 228 228 230 234 240 243 243 240 235 230 230 231 232 233 235 236 234 227 221 219 218 221
227 229 226 220 216 215 215 214 213 211 209 209 212 215 217 220 223 226 228 231 233 233 234 236 240 244 246 246 244 240 237 235 232 232 231 230 230 225 220 218 215 214
225 231 234 231 226 222 220 219 218 216 213 212 214 216 217 220 223 225 228 231 234 236 236 237 239 242 243 242 243 243 242 240 237 234 230 224 222 223 222 222 219 212
224 228 233 235 234 231 228 226 225 222 219 216 218 220 220 221 223 225 227 231 235 237 237 238 239 239 239 238 239 240 241 242 240 237 233 226 220 221 224 226 227 225
227 229 231 234 236 236 234 233 232 230 226 223 222 223 224 224 225 226 227 230 233 237 238 239 240 240 239 238 238 239 239 239 238 237 235 231 226 223 225 229 230 233
228 229 232 234 236 238 238 237 237 236 234 231 228 227 228 229 229 228 229 231 233 236 239 240 241 241 240 238 239 241 242 239 235 233 232 231 231 229 229 232 233 236
230 230 231 233 235 238 240 240 240 241 241 239 235 233 232 233 234 233 233 233 234 235 237 240 242 242 242 241 240 241 243 242 236 232 229 229 231 232 232 234 236 237
233 232 232 232 234 237 240 243 243 244 245 246 244 241 238 238 238 238 238 238 237 237 238 239 241 243 243 243 242 242 243 244 240 234 230 228 229 231 233 235 237 237
232 231 232 232 234 236 238 242 244 245 247 249 250 249 246 244 243 242 243 243 242 241 241 242 242 243 244 244 244 243 244 245 245 241 236 232 230 231 233 235 237 238
228 227 227 228 231 234 236 238 240 243 245 247 250 252 251 251 249 248 248 248 248 247 246 246 246 245 246 247 247 246 246 247 248 247 244 240 236 235 236 238 240 241
233 230 227 226 228 230 233 235 236 238 241 242 245 249 251 252 253 253 252 252 253 252 251 250 249 248 247 248 250 250 250 250 250 250 250 248 246 244 242 243 245 246
238 237 235 233 233 234 235 236 237 238 239 240 242 244 247 249 250 251 253 255 256 256 255 254 253 251 249 249 251 252 253 253 252 252 252 252 252 252 250 250 251 253
238 240 240 239 242 246 244 241 242 242 241 240 239 240 241 243 245 246 247 250 253 255 256 257 256 255 252 250 252 253 254 254 254 254 254 254 255 255 256 257 257 258
243 240 240 241 244 247 246 241 242 244 243 241 238 238 239 239 240 242 242 243 246 249 251 254 255 256 255 254 254 255 255 255 255 255 255 255 257 258 259 260 261 262
254 243 240 242 243 246 248 246 245 245 244 243 239 238 239 239 238 240 240 241 243 244 246 248 251 253 254 254 255 256 257 257 257 256 256 256 258 259 261 262 263 264
254 246 242 243 244 247 250 251 250 250 249 249 245 241 243 245 245 244 244 243 244 244 245 245 247 250 251 251 252 254 257 258 259 258 257 256 257 258 260 262 263 265
252 247 244 245 246 247 248 248 249 250 250 252 250 246 249 253 253 252 251 249 248 247 247 246 246 247 249 249 250 252 254 257 258 259 258 256 256 256 258 261 263 264
254 249 247 248 249 249 248 248 248 246 246 248 246 243 245 251 252 251 251 250 250 250 250 249 246 245 245 247 249 251 253 255 256 256 256 255 254 254 254 256 259 261
254 254 252 251 251 251 252 253 252 248 246 246 243 240 244 249 251 251 250 249 249 250 250 250 248 247 245 245 247 249 251 252 253 254 254 254 253 252 251 251 253 255
253 255 255 254 254 254 253 254 254 253 251 249 245 243 244 247 249 251 252 251 250 250 249 249 249 249 248 247 247 248 250 252 253 253 254 254 253 251 250 249 249 251